Location: Newark
(34.9500°N, 139.9667°E)
Time: 09:15:45
(UTC+00:00)

Altair - Pass Details

Date: 18 December 2019
Orbit: 1502 x 1682 km, 47.2° (Epoch: 17 January)

Event Time Altitude Azimuth Distance (km) Brightness Sun altitude
Rises 09:38:31 0° 242° (WSW) 4,863 11.3 -25.4°
Reaches altitude 10° 09:41:42 10° 244° (WSW) 3,857 10.5 -26.0°
Maximum altitude 09:51:31 73° 329° (NNW) 1,649 7.6 -28.0°
Enters shadow 09:55:01 44° 40° (NE) 2,057 7.8 -28.7°
